Location: ?????????
(38.0736°N, 23.2119°E)
Time: 11:46:45
(UTC+00:00)

Cosmos 2219 Rocket - Pass Details

Date: 18 April 2024
Orbit: 828 x 845 km, 71.0° (Epoch: 18 May)

Event Time Altitude Azimuth Distance (km) Brightness Sun altitude
Exits shadow 23:05:27 23° 23° (NNE) 1,695 4.2 -39.8°
Drops below altitude 10° 23:07:27 10° 23° (NNE) 2,437 5.3 -39.7°
Sets 23:09:53 0° 23° (NNE) 3,374 6.2 -39.6°
